Montevideo, Uruguay

8:27 AM -03 en Julio 21, 2018 (GMT -0300)
Carrasco International-Gen C L Berisso

Tiempo Historia de SUMU - Enero, 2018

Change the Weather History Date:

Viernes, Enero 12, 2018

  Actual Average Record
Temperature  
Temperatura media 78 ° F -  
Temperatura máxima 84 ° F 77 ° F 95 ° F (2005)
Temperatura mínima 71 ° F 60 ° F 53 ° F (1999)
Cooling Degree Days 12    
Growing Degree Days 28 (Base 50)    
Moisture  
Punto de rocío 68 ° F    
Average Humidity 69    
Maximum Humidity 83    
Minimum Humidity 52    
Precipitación  
Precipitación 0.00 pul 0.12 pul - ()
Presión al nivel del mar  
Presión al nivel del mar 29.81 pul    
Viento  
Velocidad del viento 10 mph ()    
Velocidad máxima del viento 18 mph    
Max Gust Speed -    
Visibilidad 8.1 Millas    
Eventos      
Averages and records for this station are not official NWS values.
T = Trace of Precipitation, MM = Missing Value Source: Averaged Metar Reports

Daily Weather History Graph

Daily Weather History Graph

Search for Another Location

Airport or City:

Astronomía

Jan. 12, 2018 Salida Puesta
Hora real 5:43 AM -03 8:00 PM -03
Crepúsculo civil 5:14 AM -03 8:29 PM -03
Crepúsculo náutico 4:39 AM -03 9:05 PM -03
Crepúsculo astronómico 4:00 AM -03 9:43 PM -03
Luna 2:27 AM -03 (1/12) 4:22 PM -03 (1/12)
Horas de luz 15h 14m
Horas de luz
14h 17m
Creciente menguante, 17% of the Moon is Illuminated
Ene 12
Creciente menguante
Ene 16
Nueva
Ene 24
Cuarto creciente
Ene 31
Luna llena
Feb 7
Cuarto menguante

Hourly Weather History & Observations

Hora (-03) Temp. Índice de calor Punto de rocío Humedad Presión Visibilidad Wind Dir Velocidad del viento Velocidad de ráfagas Precip Eventos Condiciones
12:00 AM 79 ° F - 65 ° F 52% 29.89 pul 12 mi NE 11.5 mph - -   Despejado
12:00 AM 78.8 ° F - 64.4 ° F 61% 29.89 pul - NE 11.5 mph - N/A   Despejado
1:00 AM 77.0 ° F - 66.2 ° F 69% 29.89 pul - NE 11.5 mph - N/A   Despejado
2:00 AM 75.2 ° F - 68.0 ° F 78% 29.86 pul - NNE 11.5 mph - N/A   Despejado
3:00 AM 75 ° F - 67 ° F 71% 29.85 pul 12 mi NNE 10.4 mph - -   Nubes dispersas
3:00 AM 75.2 ° F - 68.0 ° F 78% 29.83 pul - NNE 10.4 mph - N/A   Despejado
4:00 AM 73.4 ° F - 66.2 ° F 78% 29.83 pul - NNE 11.5 mph - N/A   Despejado
5:00 AM 71.6 ° F - 66.2 ° F 83% 29.83 pul - NNE 10.4 mph - N/A   Despejado
6:00 AM 72 ° F - 66 ° F 77% 29.86 pul 12 mi NNE 10.4 mph - -   Nubes dispersas
6:00 AM 71.6 ° F - 66.2 ° F 83% 29.86 pul - NNE 10.4 mph - N/A   Despejado
7:00 AM 73.4 ° F - 66.2 ° F 78% 29.86 pul - NNE 11.5 mph - N/A   Despejado
8:00 AM 75.2 ° F - 66.2 ° F 73% 29.86 pul - NNE 13.8 mph - N/A   Despejado
9:00 AM 81 ° F - 69 ° F 58% 29.86 pul 9 mi NNE 10.4 mph - -   Nubes dispersas
9:00 AM 80.6 ° F 83.2 ° F 68.0 ° F 65% 29.86 pul - NNE 10.4 mph - N/A   Despejado
10:00 AM 84.2 ° F 87.3 ° F 68.0 ° F 58% 29.86 pul 6.2 mi Oeste 9.2 mph - N/A   Muy nublado
11:00 AM 82.4 ° F 85.4 ° F 68.0 ° F 62% 29.86 pul 6.2 mi SSE 11.5 mph - N/A   Muy nublado
12:00 PM 82 ° F - 68 ° F 54% 29.86 pul 9 mi SE 8.1 mph - -   Nubes dispersas
12:00 PM 82.4 ° F 85.4 ° F 68.0 ° F 62% 29.86 pul 6.2 mi SE 8.1 mph - N/A   Muy nublado
1:00 PM 82.4 ° F 85.4 ° F 68.0 ° F 62% 29.86 pul 6.2 mi SE 13.8 mph - N/A   Muy nublado
2:00 PM 82.4 ° F 85.4 ° F 68.0 ° F 62% 29.83 pul 6.2 mi ESE 17.3 mph - N/A   Muy nublado
3:00 PM 80 ° F - 67 ° F 57% 29.78 pul 9 mi ESE 18.4 mph - -   Nubes dispersas
3:00 PM 80.6 ° F 83.2 ° F 68.0 ° F 65% 29.77 pul 6.2 mi ESE 18.4 mph - N/A   Muy nublado
4:00 PM 82.4 ° F 85.4 ° F 68.0 ° F 62% 29.74 pul 6.2 mi SE 15.0 mph - N/A   Muy nublado
5:00 PM 80.6 ° F 83.2 ° F 68.0 ° F 65% 29.74 pul 6.2 mi ESE 12.7 mph - N/A   Muy nublado
6:00 PM 79 ° F - 69 ° F 63% 29.73 pul 9 mi ONO 3.5 mph - -   Parcialmente nublado
6:00 PM 78.8 ° F - 68.0 ° F 69% 29.71 pul - ONO 3.5 mph - N/A   Despejado
7:00 PM 78.8 ° F - 69.8 ° F 74% 29.71 pul - Sur 5.8 mph - N/A   Despejado
8:00 PM 77.0 ° F - 69.8 ° F 78% 29.71 pul - Oeste 3.5 mph - N/A   Despejado
9:00 PM 77.0 ° F - 69.8 ° F 78% 29.71 pul - NO 4.6 mph - N/A   Despejado
10:00 PM 77.0 ° F - 69.8 ° F 78% 29.71 pul - NNE 3.5 mph - N/A   Despejado
11:00 PM 75.2 ° F - 68.0 ° F 78% 29.71 pul - Norte 4.6 mph - N/A   Despejado